Location: York
(31.8935°S, 116.7682°E)
Time: 08:01:35
(UTC+08:00)

Oscar 11 - Visible Passes

Search period start: 01 December 2022 00:00
Search period end: 11 December 2022 00:00
Orbit: 610 x 623 km, 97.6° (Epoch: 30 November)

Date Brightness Start Highest point End Pass type
(mag) Time Alt. Az. Time Alt. Az. Time Alt. Az.
01 Dec 7.2 04:25:46 10° N 04:30:00 57° W 04:34:20 10° SSW visible
02 Dec 10.0 03:08:02 10° ENE 03:10:35 15° ESE 03:13:09 10° SSE visible
03 Dec 9.5 03:23:13 10° NE 03:26:40 23° ESE 03:30:10 10° SSE visible
04 Dec 8.7 03:38:51 10° NE 03:42:48 36° ESE 03:46:49 10° S visible
05 Dec 7.8 03:54:44 10° NNE 03:58:58 58° ESE 04:03:17 10° S visible
06 Dec 7.1 04:10:50 10° NNE 04:15:10 88° WNW 04:19:35 10° SSW visible
07 Dec 10.4 02:55:04 10° ESE 02:55:54 10° ESE 02:56:44 10° SE visible
07 Dec 7.2 04:27:10 10° N 04:31:24 54° W 04:35:42 10° SSW visible
08 Dec 10.0 03:09:14 10° ENE 03:11:56 16° ESE 03:14:40 10° SSE visible
09 Dec 9.4 03:24:29 10° NE 03:28:02 25° ESE 03:31:37 10° SSE visible
10 Dec 8.6 03:40:08 10° NE 03:44:09 38° ESE 03:48:14 10° S visible
